Location: Miles
(41.4492°N, 81.6087°W)
Time: 07:18:04
(UTC+00:00)

Vanguard 1 Rocket - Pass Details

Date: 13 September 2024
Orbit: 650 x 4218 km, 34.3° (Epoch: 05 October)

Event Time Altitude Azimuth Distance (km) Brightness Sun altitude
Rises 10:09:29 0° 244° (WSW) 5,879 - -11.1°
Reaches altitude 10° 10:12:40 10° 241° (WSW) 5,243 - -10.5°
Exits shadow 10:12:41 10° 241° (WSW) 5,241 10.6 -10.5°
Maximum altitude 10:29:57 67° 164° (SSE) 3,918 10.6 -7.4°
Drops below altitude 10° 10:55:46 10° 90° (E) 7,369 14.0 -2.6°
Sets 11:01:20 0° 88° (E) 8,253 15.6 -1.6°
